Regional Weather Roundup
Issued by NWS

Home | Current Version | Previous Version | Graphics & Text | Print | Product List | Glossary On
Versions: 1 2 3 4 5 6 7 8 9 10 11 12 13 14 15 16 17 18 19 20 21 22 23 24 25 26 27 28 29 30 31 32 33 34 35 36 37 38 39 40 41 42 43 44 45 46 47 48 49 50
615
ASUS43 KMKX 231621
RWRWI

WISCONSIN REGIONAL WEATHER ROUNDUP
NATIONAL WEATHER SERVICE MILWAUKEE/SULLIVAN WI
1100 AM CDT SAT SEP 23 2017

NOTE: "FAIR" INDICATES FEW OR NO CLOUDS BELOW 12,000 FEET WITH NO
SIGNIFICANT WEATHER AND/OR OBSTRUCTIONS TO VISIBILITY.

WIZ001-002-006>008-014>016-023>028-231700-
NORTHWEST WISCONSIN

CITY           SKY/WX    TMP DP  RH WIND       PRES   REMARKS
SUPERIOR ARPT  MOSUNNY   81  71  71 W9        29.92S HX  85
ASHLAND        SUNNY     83  70  64 SW8G18    29.96S HX  87
HAYWARD        SUNNY     79  68  69 S10       29.99S HX  81
SIREN          MOSUNNY   81  68  64 SW9       29.96F HX  83
CUMBERLAND     MOSUNNY   77  68  73 SW9       30.00R
RICE LAKE      MOSUNNY   81  67  63 S8        30.01S HX  84
CHETEK         MOSUNNY   80  70  72 SW8       30.00F HX  83
LADYSMITH      MOSUNNY   81  69  67 S10       30.04R HX  84
EAU CLAIRE     SUNNY     81  68  64 S12       30.00S HX  84
MENOMONIE      SUNNY     81  69  66 S10       30.00F HX  84
NEW RICHMOND   SUNNY     81  67  62 SW10      29.99S HX  83
OSCEOLA        MOSUNNY   81  69  66 S9        29.99S HX  83
$$

WIZ003>005-009-010-017-018-231700-
NORTH CENTRAL WISCONSIN

CITY           SKY/WX    TMP DP  RH WIND       PRES   REMARKS
MANITOWISH WTR SUNNY     79  72  78 SW14G21   30.02F HX  82
ARBOR VITAE    SUNNY     80  70  71 S10G17    30.04S HX  83
WOODRUFF       SUNNY     80  70  71 S10G17    30.04S HX  83
RHINELANDER      N/A     80  69  69 MISG      30.07R HX  83
EAGLE RIVER    SUNNY     80  66  62 SW9G22    30.04S HX  82
LAND O LAKES   SUNNY     80  67  63 SW9G20    30.05S HX  82
PHILLIPS       MOSUNNY   79  70  73 S10G17    30.02F HX  81
TOMAHAWK       MOSUNNY   81  67  63 S6        30.06S HX  83
MEDFORD        MOSUNNY   80  67  64 SW15      30.06S HX  82
MERRILL        SUNNY     82  69  64 SW12      30.07S HX  85
$$

WIZ029-030-035-036-043>047-231700-
CENTRAL WISCONSIN

CITY           SKY/WX    TMP DP  RH WIND       PRES   REMARKS
WAUSAU         SUNNY     82  67  60 SW12      30.05S HX  84
MOSINEE        MOSUNNY   82  70  65 SW12G20   30.08S HX  86
MARSHFIELD     SUNNY     83  66  56 SW14      30.06S HX  85
STEVENS POINT  SUNNY     82  67  60 SW10      30.08S HX  84
WAUPACA        SUNNY     85  69  57 S3        30.08S HX  89
WAUTOMA        SUNNY     84  69  60 SW7       30.08S HX  88
WISC RAPIDS    SUNNY     85  69  58 SW9       30.08S HX  89
CAMP DOUGLAS   MOSUNNY   86  70  58 SW12      30.06S HX  90
$$

WIZ011>013-019>022-031-037>040-048>050-231700-
NORTHEAST WISCONSIN

CITY           SKY/WX    TMP DP  RH WIND       PRES   REMARKS
ANTIGO         SUNNY     81  68  65 SW12      30.08S HX  83
SHAWANO        SUNNY     85  68  57 SW6       30.06S HX  88
OCONTO         SUNNY     84  68  58 SW7       30.05S HX  87
STURGEON BAY   SUNNY     86  67  52 SW10      30.08R HX  89
GREEN BAY      SUNNY     84  69  60 SW9       30.07R HX  88
MANITOWOC      SUNNY     81  69  67 E6        30.09S HX  84
APPLETON       MOSUNNY   82  63  51 SW6       30.08R HX  83
CLINTONVILLE   SUNNY     84  66  54 W9        30.06F HX  86
OSHKOSH        SUNNY     83  69  62 S9        30.08S HX  86
$$

WIZ032>034-041-042-053>061-231700-
SOUTHWEST WISCONSIN

CITY           SKY/WX    TMP DP  RH WIND       PRES   REMARKS
LA CROSSE      SUNNY     85  68  56 S9        30.03F HX  88
SPARTA         SUNNY     84  68  59 SW5       30.06S HX  87
VIROQUA        MOSUNNY   82  68  62 SW8       30.08F HX  85
BOSCOBEL       SUNNY     85  67  54 CALM      30.07S HX  87
PRAIRIE DU CHI SUNNY     83  64  51 S5        30.06S HX  84
PLATTEVILLE    SUNNY     86  66  52 S8        30.10S HX  88
$$

WIZ056-057-062-063-064-067-068-231700-
SOUTH CENTRAL WISCONSIN

CITY           SKY/WX    TMP DP  RH WIND       PRES   REMARKS
REEDSBURG      SUNNY     84  68  57 S5        30.08S HX  87
BARABOO/DELLS  SUNNY     84  64  50 SW5       30.09S HX  85
LONE ROCK      SUNNY     85  68  56 VRB3      30.07S HX  88
MINERAL POINT  SUNNY     86  68  54 SW5       30.10S HX  89
MADISON        MOSUNNY   83  67  58 S6        30.09S HX  85
MIDDLETON      SUNNY     86  65  49 SW6       30.10S HX  88
WATERTOWN      MOSUNNY   84  68  58 S3        30.10S HX  87
MONROE         NOT AVBL
JANESVILLE     SUNNY     88  63  42 CALM      30.10S HX  88
$$

WIZ051-052-058>065-066-070>072-231700-
SOUTHEAST WISCONSIN

CITY           SKY/WX    TMP DP  RH WIND       PRES   REMARKS
MILWAUKEE      SUNNY     89  66  46 S9        30.10S HX  91
WAUKESHA       SUNNY     84  64  51 SW3       30.13R HX  86
MILWAUKEE/TIMM SUNNY     88  59  37 SW8       30.11R HX  87
RACINE         SUNNY     86  69  56 S6        30.12S HX  90
BURLINGTON     SUNNY     87  68  52 S3        30.11S HX  91
KENOSHA        SUNNY     89  66  46 SW7       30.11S HX  91
FOND DU LAC    SUNNY     84  66  54 SW6       30.09S HX  86
SHEBOYGAN      SUNNY     86  69  56 S6        30.10R HX  90
WEST BEND        N/A     86  63  45 W7        30.11R HX  87
JUNEAU         SUNNY     81  67  62 S3        30.12S HX  84
$$

LSZ147-162-231700-
LAKE SUPERIOR

STATION/POSITION TIME  TEMP    WIND        PRES    WAVE
                       AIR SEA DIR/SP/G            HT/PER
                 (UTC) (F)     (DEG/KT/KT) (MB)    (FT/S)
W MID LAKE BUOY  1550   62 55  230/ 10/ 10 1013.5R   1/ 4
DEVILS ISLAND    1600   71     230/ 10/ 13 1013.1S
SAXON HARBOR     1540   81     190/  6/ 11 1014.2R
$$

LMZ867-665-643>646-231700-
LAKE MICHIGAN

STATION/POSITION TIME  TEMP    WIND        PRES    WAVE
                       AIR SEA DIR/SP/G            HT/PER
                 (UTC) (F)     (DEG/KT/KT) (MB)    (FT/S)
S GREEN BAY BUOY 1530   71 67  170/  6/  6 1017.8R
N MID LAKE BUOY  1550   69 66  190/ 12/ 14 1018.5R   2/ 4
NORTHPORT PIER   1540   76     150/  3/  8 1017.3S
KEWAUNEE LAKESHO 1554   66     160/  7/  9 1017.8R
SHEBOYGAN LAKESH 1600   73     170/ 16/ 17 1018.6R
PORT WASHINGTON  1530   77     200/  3/  7 1020.0R
ATWATER BUOY     1539   71 68  170/  6/  8 1019.6R
MILWAUKEE LAKESH 1600   76     140/  2/  3   N/A
S MID LAKE BUOY  1550   72 70  150/  4/  6 1019.7R   0
KENOSHA   LAKESH 1600   74     160/  9/  9 1019.0
$$

TC  - TEMPERATURE IN CELSIUS
VSB - VISIBILITY IN STATUTE MILES
WCI - WIND CHILL INDEX
HX  - HEAT INDEX





USA.gov is the U.S. government's official web portal to all federal, state and local government web resources and services.